TimeEET,TemperatureF,Dew PointF,Humidity,Sea Level PressureIn,VisibilityMPH,Wind Direction,Wind SpeedMPH,Gust SpeedMPH,PrecipitationIn,Events,Conditions,WindDirDegrees,DateUTC
12:20 AM,71.6,53.6,53,29.77,6.2,South,23.0,-,N/A,,Mostly Cloudy,180,2012-12-02 22:20:00
12:50 AM,71.6,53.6,53,29.80,6.2,South,23.0,-,N/A,,Mostly Cloudy,180,2012-12-02 22:50:00
1:20 AM,71.6,53.6,53,29.80,6.2,South,20.7,-,N/A,,Mostly Cloudy,180,2012-12-02 23:20:00
1:50 AM,66.2,59.0,78,29.83,6.2,WNW,28.8,-,N/A,,Scattered Clouds,300,2012-12-02 23:50:00
2:00 AM,67,59,69,29.85,9,WNW,28.8,,,,Scattered Clouds,300,2012-12-03 00:00:00
2:20 AM,66.2,59.0,78,29.86,6.2,WNW,27.6,-,N/A,,Scattered Clouds,300,2012-12-03 00:20:00
2:50 AM,66.2,57.2,73,29.86,6.2,WNW,18.4,-,N/A,,Scattered Clouds,290,2012-12-03 00:50:00
3:20 AM,66.2,57.2,73,29.86,6.2,WNW,20.7,-,N/A,,Scattered Clouds,300,2012-12-03 01:20:00
3:50 AM,66.2,57.2,73,29.86,6.2,WNW,13.8,-,N/A,,Mostly Cloudy,300,2012-12-03 01:50:00
4:50 AM,62.6,55.4,77,29.86,6.2,Calm,Calm,-,N/A,,Mostly Cloudy,0,2012-12-03 02:50:00
5:20 AM,62.6,55.4,77,29.86,6.2,West,5.8,-,N/A,,Mostly Cloudy,280,2012-12-03 03:20:00
5:50 AM,62.6,55.4,77,29.86,6.2,West,6.9,-,N/A,,Mostly Cloudy,260,2012-12-03 03:50:00
6:50 AM,60.8,48.2,63,29.86,6.2,WSW,6.9,-,N/A,,Mostly Cloudy,240,2012-12-03 04:50:00
7:20 AM,60.8,48.2,63,29.86,6.2,South,6.9,-,N/A,,Mostly Cloudy,180,2012-12-03 05:20:00
7:50 AM,60.8,50.0,68,29.86,6.2,South,6.9,-,N/A,,Mostly Cloudy,170,2012-12-03 05:50:00
8:00 AM,61,49,56,29.88,6,South,6.9,,,,Scattered Clouds,170,2012-12-03 06:00:00
8:20 AM,60.8,50.0,68,29.86,6.2,South,4.6,-,N/A,,Mostly Cloudy,190,2012-12-03 06:20:00
8:50 AM,62.6,53.6,72,29.89,6.2,SSW,4.6,-,N/A,,Scattered Clouds,210,2012-12-03 06:50:00
9:20 AM,62.6,53.6,72,29.89,6.2,South,5.8,-,N/A,,Scattered Clouds,170,2012-12-03 07:20:00
9:50 AM,66.2,53.6,64,29.89,6.2,SSE,6.9,-,N/A,,Scattered Clouds,160,2012-12-03 07:50:00
10:20 AM,66.2,53.6,64,29.89,6.2,SSE,6.9,-,N/A,,Scattered Clouds,150,2012-12-03 08:20:00
10:50 AM,69.8,53.6,56,29.89,6.2,SSE,5.8,-,N/A,,Scattered Clouds,160,2012-12-03 08:50:00
11:20 AM,69.8,53.6,56,29.89,6.2,Variable,3.5,-,N/A,,Scattered Clouds,0,2012-12-03 09:20:00
11:50 AM,69.8,53.6,56,29.86,6.2,NNE,6.9,-,N/A,,Partly Cloudy,30,2012-12-03 09:50:00
12:20 PM,69.8,53.6,56,29.86,6.2,Variable,3.5,-,N/A,,Partly Cloudy,0,2012-12-03 10:20:00
12:50 PM,69.8,50.0,49,29.83,6.2,NNW,9.2,-,N/A,,Partly Cloudy,340,2012-12-03 10:50:00
1:20 PM,69.8,50.0,49,29.83,6.2,ENE,9.2,-,N/A,,Partly Cloudy,70,2012-12-03 11:20:00
1:50 PM,68.0,53.6,60,29.80,6.2,NE,5.8,-,N/A,,Scattered Clouds,50,2012-12-03 11:50:00
2:00 PM,68,54,51,29.81,6,NE,5.8,,,,Partly Cloudy,50,2012-12-03 12:00:00
2:50 PM,69.8,48.2,46,29.80,6.2,West,15.0,-,N/A,,Scattered Clouds,260,2012-12-03 12:50:00
3:20 PM,69.8,48.2,46,29.80,6.2,SW,11.5,-,N/A,,Scattered Clouds,220,2012-12-03 13:20:00
3:50 PM,69.8,51.8,53,29.80,6.2,WSW,11.5,-,N/A,,Partly Cloudy,250,2012-12-03 13:50:00
4:20 PM,69.8,53.6,56,29.80,6.2,SW,6.9,-,N/A,,Partly Cloudy,220,2012-12-03 14:20:00
4:50 PM,64.4,50.0,59,29.77,6.2,SW,8.1,-,N/A,,Scattered Clouds,220,2012-12-03 14:50:00
5:20 PM,64.4,50.0,59,29.77,6.2,SW,10.4,-,N/A,,Scattered Clouds,220,2012-12-03 15:20:00
5:50 PM,62.6,51.8,68,29.77,6.2,SW,10.4,-,N/A,,Scattered Clouds,220,2012-12-03 15:50:00
6:20 PM,60.8,51.8,72,29.77,6.2,SSW,9.2,-,N/A,,Scattered Clouds,210,2012-12-03 16:20:00
6:50 PM,60.8,50.0,68,29.77,6.2,SSW,10.4,-,N/A,,Partly Cloudy,210,2012-12-03 16:50:00
7:20 PM,60.8,50.0,68,29.77,6.2,WSW,5.8,-,N/A,,Partly Cloudy,240,2012-12-03 17:20:00
7:50 PM,60.8,50.0,68,29.74,6.2,SSW,6.9,-,N/A,,Partly Cloudy,210,2012-12-03 17:50:00
8:00 PM,60,50,60,29.76,6,SSW,6.9,,,,Partly Cloudy,210,2012-12-03 18:00:00
8:20 PM,60.8,50.0,68,29.74,6.2,West,12.7,-,N/A,,Partly Cloudy,260,2012-12-03 18:20:00
8:50 PM,60.8,48.2,63,29.80,6.2,SW,8.1,-,N/A,,Partly Cloudy,220,2012-12-03 18:50:00
9:20 PM,60.8,48.2,63,29.80,6.2,SW,10.4,-,N/A,,Partly Cloudy,230,2012-12-03 19:20:00
9:50 PM,62.6,48.2,59,29.74,6.2,SW,9.2,-,N/A,,Partly Cloudy,230,2012-12-03 19:50:00
10:20 PM,62.6,48.2,59,29.74,6.2,SW,9.2,-,N/A,,Partly Cloudy,230,2012-12-03 20:20:00
10:50 PM,62.6,50.0,63,29.74,6.2,SW,10.4,-,N/A,,Partly Cloudy,230,2012-12-03 20:50:00
11:20 PM,62.6,50.0,63,29.74,6.2,WSW,5.8,-,N/A,,Partly Cloudy,240,2012-12-03 21:20:00
11:50 PM,59.0,51.8,77,29.74,6.2,WNW,27.6,-,N/A,,Scattered Clouds,290,2012-12-03 21:50:00